Volver al catálogo

STARLINK-31427

ActivoComunicacionesVLEO
NORAD 59241·PAYLOAD·🇺🇸 United States

Lanzado Mar 16, 2024 desde Cape Canaveral Space Force Station

Loading…

Próximos Pases (próximas 24 horas)

TLE

ActualizadoSource: CelesTrak SupGP

Época: Sep 15, 2026, 03:26 UTC

1 59241C 24049L   26258.14354167  .00047982  00000+0  17383-2 0  2585
2 59241  43.0004 153.9143 0001459 270.7267 196.9656 15.27547357    19

Sigue STARLINK-31427 en tiempo real con AllMySat

Download on the App Store